sat.trackr.live / text

‹ back to catalog

KUIPER-00247

NORAD 67152 · 2025-301V

PAYLOAD ACTIVE UNKNOWN

§ Identity

Operator
Country
US
Launch date
2025-12-16
Launch site
AFETR
Launch vehicle
Mass (kg)
RCS (m²)

External: N2YO · Heavens-Above · Gunter

§ Orbital elements

Epoch: 2026-09-20T05:17:35.752416Z

Period
97.30 min
Inclination
51.8967°
Eccentricity
0.0000455
Mean motion
14.79931740 rev/d
Perigee alt
629.2 km
Apogee alt
629.9 km
Semi-major
7,007.7 km
B*
1.1190e-4
RAAN
277.8415°
Arg perigee
65.9796°
Mean anomaly
294.1214°
Rev number
4,264

§ Raw data

KUIPER-002471 67152U 25301V   26263.22055269  .00000632  00000+0  11190-3 0  99972 67152  51.8967 277.8415 0000455  65.9796 294.1214 14.79931740 42643

JSON: /api/v1/satellites/67152 · /tle

For live sub-satellite position, see the globe view (requires WebGL).

§ Visibility from observer

Set your observer location to see the next 7 days of passes ≥ 10°. The values pass through the URL so the page stays shareable.

No JS? Fill the form by hand. The geolocation button needs JavaScript.